Details From CYPX - Puvirnituq
To CYGL - La Grande Riviere
Flight Number -
Tags Generated
Created
Modified
Stats Distance 386 nm / 715 km
Max Altitude 0 ft / 0 m
Waypoints 3
Social Downloads 2
Likes 0
Share VATSIM

Download

Looking for another format? Having issues loading an existing format? Contact us
Advertisement - Login to hide

Notes

Generated

Route

CYPX GL CYGL

ID Type Via Altitude Latitude Longitude Leg Dist Tot Dist Heading (true) Name
O CYPX APT - 0 ft / 0 m 60.04389˚ -77.28306˚ - 0 nm - -
GL NDB - 0 ft / 0 m 53.63028˚ -77.70417˚ 385 nm 385 nm 182° / 182° LA GRANDE RIVIERE NDB
O CYGL APT - 0 ft / 0 m 53.62884˚ -77.71787˚ 0 nm 385 nm 260° / 260° -

Altitude Profile

Advertisement - Login to hide

Weather


0- 5 10 15 20 25 30 35+ Temperature / ° C

Clouds and Precipitation
Forecast for 2018-05-22 12:00 UTC. Updated 5 hours ago

Ground ~20,000 ft ~40,000 ft Winds

CYPX

Details ICAO CYPX (YPX)
Name PUVIRNITUQ
Region Canada
Timezone America/Montreal (UTC-4.0)
Stats Elevation 74 ft / 23 m (AMSL)
Location 60.050418° -77.286945°
Runways 1
Magnetic Variation 19.838° W

METAR

CYPX 221600Z AUTO 32010KT 9SM -SN SCT025 OVC034 M04/M07 A3006 RMK SLP185

Decode

TAF

TAF CYPX 221138Z 2212/2224 30010KT P6SM -SN SCT015 OVC040 TEMPO 2212/2224 21/2SM -SHSN SCT006 OVC015 RMK FCST BASED ON AUTO OBS. NXT FCST BY 221800Z

Decode

Departure Runways

ID Width Length Bearing (true) Bearing (mag) Surface Threshold Offset Overrun Length
01 100 ft / 30 m 4,971 ft / 1,515 m 343.44° 3.28° Gravel 0 ft / 0 m 0 ft / 0 m
19 100 ft / 30 m 4,971 ft / 1,515 m 163.44° 183.28° Gravel 0 ft / 0 m 0 ft / 0 m

CYGL

Details ICAO CYGL (YGL)
Name LA GRANDE RIVIERE
Region Canada
Timezone America/Montreal (UTC-4.0)
Stats Elevation 639 ft / 195 m (AMSL)
Location 53.625369° -77.704115°
Runways 1
Magnetic Variation 15.267° W

METAR

CYGL 221600Z 03009KT 310V060 15SM BKN020 M03/M08 A3000 RMK SC7 SLP176

Decode

TAF

TAF TAF AMD CYGL 221533Z 2215/2312 02010KT P6SM BKN020 TEMPO 2215/2223 BKN025 FM230400 02005KT P6SM SCT025 RMK NXT FCST BY 221800Z

Decode

Destination Runways

ID Width Length Bearing (true) Bearing (mag) Surface Threshold Offset Overrun Length
13 150 ft / 46 m 6,469 ft / 1,972 m 113.03° 128.30° Asphalt 0 ft / 0 m 0 ft / 0 m
31 150 ft / 46 m 6,469 ft / 1,972 m 293.05° 308.32° Asphalt 0 ft / 0 m 0 ft / 0 m